UKUBE-1

Last updated on Tue Jul 01 2025 00:03:44 GMT+0000 (Coordinated Universal Time)

1 40074U 14037F 25181.43462289 .00005360 00000+0 37547-3 0 9997 2 40074 98.3952 145.5677 0000147 86.9962 273.1279 15.05716695595487
UTC large
Height (km)
Speed (km/s)
/
Latitude / Longitude
Inclination (degrees)
Orbital Period (minutes)
Azimuth
Elevation
Range (km)
Doppler Factor

Next 0 passes for location: London (51.5072 / 0.1276)

Sorry there are no passes over London.